World > North America > United States > Pennsylvania

Concordville, Pennsylvania Regional Weather

Lat: 39.88N, Lon: 75.52W
Wx Zone: PAZ070Web Search

Helpful Tip: You can add this page to Bookmarks by pressing the Ctrl key & d key at the same time. Mac users press command & d.

Feedback


°F Click to change Concordville hourly weather to Imperial units.Click to change Concordville hourly weather to Metric units. °C
Concordville Weather Map
UTC Time: 5/12/2021, 14:59
Your Time:

Concordville, PA Regional Weather

Expires:202105121500;;001409
ASUS41 KPHI 121412
RWRPHI

REGIONAL WEATHER ROUNDUP
NATIONAL WEATHER SERVICE MOUNT HOLLY NJ
1000 AM EDT WED MAY 12 2021

NOTE:  "FAIR" INDICATES FEW OR NO CLOUDS BELOW 12,000 FEET WITH NO
SIGNIFICANT WEATHER AND/OR OBSTRUCTIONS TO VISIBILITY.

 * = STATION DOES NOT REPORT PRECIPITATION (E.G. RAIN, SNOW, ETC.) 
        OR FOG.


PAZ043-044-047-054-055-060>062-066>071-121500-
EASTERN PENNSYLVANIA
  
CITY           SKY/WX    TMP DP  RH WIND       PRES   REMARKS
PHILADELPHIA   MOSUNNY   53  34  48 NW15G21   30.23F                  
NORTH PHILA    MOSUNNY   54  35  48 N10G18    30.23S                  
BLUE BELL*     SUNNY     53  35  50 NW8       30.22F                  
DOYLESTOWN     SUNNY     54  35  48 NW9G17    30.20S                  
QUAKERTOWN*    SUNNY     54  36  50 NW8G20    30.21S                  
PERKASIE*      FAIR      54  36  50 N9G18     30.22R                  
POTTSTOWN      SUNNY     53  35  50 N9        30.23S                  
LANCASTER      SUNNY     56  37  49 N10       30.24S                  
COATESVILLE    MOSUNNY   52  36  54 VRB7G15   30.24F                  
READING        SUNNY     54  37  52 N13       30.22F                  
ALLENTOWN      SUNNY     52  35  52 NW16G24   30.21S                  
QN CITY/ALNTWN FAIR      54  36  50 NW9       30.23S                  
MOUNT POCONO   SUNNY     46  34  62 NW18G25   30.17S                  
HAZLETON       SUNNY     46  32  57 NW9G17    30.24F                  
LEHIGHTON      FAIR      54  36  50 N9        30.24S                  
WILKES BARRE   CLOUDY    51  36  56 CALM      30.23F                  

$$

SKY/WX - Weather  TMP - Temperature  DP - Dew Point  RH - Relative Humidity
WIND - Wind Direction/Speed PRES - Barometric Pressure VSB - Visibility
WCI - Wind Chill Index E13G22 Wind - East Wind 13 mph/Gusts of 22 mph